Location: New York
(40.7140°N, 74.0060°W)
Time: 15:34:39
(UTC-04:00)

ISS - Visible Passes

Search period start: 22 July 2014 00:00
Search period end: 01 August 2014 00:00
Orbit: 413 x 420 km, 51.6° (Epoch: 22 July)

Date Brightness Start Highest point End Pass type
(mag) Time Alt. Az. Time Alt. Az. Time Alt. Az.
22 Jul -2.4 03:02:32 49° NNE 03:02:32 49° NNE 03:05:11 10° NE visible
22 Jul -0.8 04:36:41 10° WNW 04:39:03 18° NNW 04:41:24 10° NNE visible
23 Jul -0.6 02:15:43 18° ENE 02:15:43 18° ENE 02:16:40 10° ENE visible
23 Jul -1.1 03:48:36 15° WNW 03:50:20 22° NNW 03:53:03 10° NNE visible
24 Jul -1.6 03:01:45 30° NNW 03:01:45 30° NNW 03:04:42 10° NE visible
24 Jul -0.4 04:37:28 10° NW 04:39:14 13° N 04:41:00 10° NNE visible
25 Jul -0.7 02:14:53 22° NNE 02:14:53 22° NNE 02:16:19 10° NE visible
25 Jul -0.5 03:48:24 10° NW 03:50:27 15° NNW 03:52:31 10° NNE visible
26 Jul -0.8 03:00:52 17° NW 03:01:42 18° NNW 03:04:07 10° NNE visible
26 Jul -0.3 04:37:48 10° NNW 04:39:28 13° N 04:41:09 10° NNE visible
27 Jul -0.6 02:13:57 20° N 02:13:57 20° N 02:15:45 10° NNE visible
27 Jul -0.2 03:49:02 10° NNW 03:50:40 13° N 03:52:18 10° NNE visible
28 Jul 0.0 01:27:02 12° NE 01:27:02 12° NE 01:27:23 10° NE visible
28 Jul -0.2 03:00:04 10° NW 03:01:52 14° N 03:03:39 10° NNE visible
28 Jul -0.3 04:37:28 10° NNW 04:39:39 16° NNE 04:41:50 10° NE visible
29 Jul -0.3 02:13:00 15° NNW 02:13:04 15° NNW 02:15:10 10° NNE visible
29 Jul -0.2 03:49:01 10° NNW 03:50:53 14° N 03:52:44 10° NE visible
30 Jul 0.0 01:26:06 13° NNE 01:26:06 13° NNE 01:26:46 10° NNE visible
30 Jul -0.1 03:00:25 10° NNW 03:02:04 13° N 03:03:43 10° NNE visible
30 Jul -0.8 04:36:53 10° NW 04:39:43 24° NNE 04:42:33 10° E visible
31 Jul -0.1 02:12:08 11° NNW 02:13:15 13° N 02:14:53 10° NNE visible
31 Jul -0.4 03:48:31 10° NNW 03:51:00 19° NNE 03:53:29 10° ENE visible
